Location: Unspecified
(44.0704°N, 88.6889°W)
Time: 12:35:48
(UTC+02:00)

CZ-3 Stage 3 - Visible Passes

Search period start: 20 August 2018 00:00
Search period end: 30 August 2018 00:00
Orbit: 375 x 34817 km, 30.6° (Epoch: 18 August)

Date Brightness Start Highest point End Pass type
(mag) Time Alt. Az. Time Alt. Az. Time Alt. Az.
20 Aug 6.7 04:19:39 10° SSW 07:21:08 41° SW 13:23:02 10° SSE visible
21 Aug 7.7 00:47:29 10° SSE 08:44:25 71° S 09:46:09 10° ESE visible
22 Aug 8.5 00:01:22 10° E 04:23:50 39° E 05:56:19 10° E visible
23 Aug 6.7 04:08:38 10° SSW 07:09:26 42° SW 13:12:57 10° SSE visible
24 Aug 7.6 00:35:55 10° SSE 08:32:01 71° S 09:36:04 10° ESE visible
24 Aug 8.5 23:47:28 10° E 04:12:11 39° E 05:46:01 10° E visible
26 Aug 6.7 03:57:37 10° SSW 06:57:44 42° SW 13:02:49 10° SSE visible
27 Aug 7.6 00:24:23 10° SSE 08:19:22 71° S 09:25:57 10° ESE visible
27 Aug 8.5 23:33:37 10° E 04:00:31 39° E 05:35:39 10° E visible
29 Aug 6.7 03:46:35 10° SSW 06:46:02 43° SW 12:52:39 10° SSE visible
